Location: Unspecified
(42.3650°N, 71.1030°W)
Time: 15:19:41
(UTC+00:00)

Tiros 1 - Pass Details

Date: 30 June 2024
Orbit: 624 x 656 km, 48.4° (Epoch: 13 July)

Event Time Altitude Azimuth Distance (km) Brightness Sun altitude
Rises 06:44:13 0° 296° (WNW) 2,908 10.5 -19.2°
Reaches altitude 10° 06:46:32 10° 298° (WNW) 2,002 9.7 -19.0°
Maximum altitude 06:51:09 81° 26° (NNE) 641 7.1 -18.6°
Drops below altitude 10° 06:55:47 10° 114° (ESE) 2,011 9.8 -18.2°
Sets 06:58:07 0° 115° (ESE) 2,922 10.6 -18.0°
